[[{"header":{"parameterUnit":"m.s-1","parameterCategory":1,"la1":30.2992,"la2":30.254,"lo1":-89.0895,"lo2":-89.0443,"dy":0.0025,"dx":0.0025,"nx":19,"ny":19,"refTime":"2026-05-23T03:00:00:Z","depth":0,"parameterNumber":2,"parameterNumberName":"U-component_of_WINDS"},"data":[0,0,0,0.2283,0.2283,0.229,0.229,0.2305,0.2305,0,0,0,0,0,0,0,0,0,0,0,0.2283,0.2283,0.2283,0.2283,0.229,0.229,0.2305,0.2305,0,0,0,0,0,0,0,0,0,0,0,0.2283,0.2283,0.2283,0.2283,0.229,0.229,0.2305,0.2298,0,0,0,0,0,0,0,0,0,0,0.2291,0.2292,0.2283,0.2283,0.2283,0.229,0.229,0.2297,0.2298,0.2304,0,0.2308,0,0.2307,0.2306,0.2307,0,0,0,0.2282,0.2291,0.2291,0.2283,0.2283,0.229,0.2286,0.2298,0.2299,0.2306,0.2309,0.2309,0.2307,0.2307,0.2307,0.2345,0.2345,0,0,0.2281,0.2285,0.229,0.2292,0.2289,0.2286,0.2286,0.2298,0.2302,0.2309,0.2309,0.2308,0.2307,0.2307,0.2344,0.2345,0,0,0,0.2281,0.2285,0.2285,0.2291,0.2292,0.2286,0.2287,0.2302,0.2301,0.2309,0.2308,0.2307,0.2307,0.2344,0.2345,0.2362,0,0,0,0.2281,0.2285,0.2284,0.2287,0.2292,0.2296,0.229,0.2301,0.2302,0.2308,0.2307,0.2307,0.2344,0.2344,0.236,0.2369,0,0,0,0.2282,0.2285,0.2286,0.2287,0.229,0.2296,0.2296,0.2301,0.2301,0.2307,0.2307,0.2344,0.2344,0.2359,0.2367,0.2383,0,0,0,0.2284,0.2299,0.2287,0.2304,0.229,0.2306,0.2296,0.2308,0.2314,0.2307,0.2344,0.2345,0.2359,0.2366,0.2382,0.2398,0.2404,0,0,0.2305,0.2302,0.2312,0.2301,0.232,0.2305,0.2327,0.2329,0.2326,0.2339,0.234,0.2361,0.2367,0.2383,0.2435,0.244,0,0,0,0.232,0.2327,0.2332,0.2339,0.2341,0.2346,0.2344,0.2347,0.2358,0.2333,0.2369,0.2373,0.2382,0.239,0.2394,0.2403,0.2348,0.2347,0.2347,0.2355,0.2352,0.237,0.2369,0.2376,0.2377,0.2384,0.2387,0.238,0.2389,0.2393,0.2425,0.2434,0.2437,0.2447,0.2399,0.24,0.24,0.24,0.2388,0.2399,0.2394,0.2409,0.2407,0.2421,0.2424,0.242,0.2434,0.242,0.2428,0.2415,0.2443,0.2451,0.2401,0.2401,0.2401,0.24,0.24,0.2412,0.2417,0.242,0.2433,0.2445,0.2444,0.246,0.2456,0.2454,0.2462,0.2468,0.2468,0.247,0.2465,0.2465,0.2465,0.2465,0.2465,0.2465,0.2435,0.2438,0.2451,0.2459,0.2466,0.2475,0.248,0.2488,0.2496,0.2493,0.2493,0.2488,0.2445,0.2436,0.2467,0.2467,0.2466,0.2466,0.2466,0.2472,0.2464,0.2484,0.2491,0.2504,0.2518,0.2516,0.2533,0.2538,0.2547,0.2542,0.251,0.2506,0.2503,0.2495,0.254,0.254,0.254,0.254,0.2493,0.2491,0.2514,0.2527,0.2539,0.2541,0.2568,0.2575,0.258,0.2585,0.2578,0.2567,0.2564,0.2562,0.2557,0.2551,0.2609,0.2609,0.2609,0.2517,0.2517,0.2539,0.2544,0.2556,0.2567,0.2594,0.2612,0.2616,0.2612,0.2589,0.2587,0.2569,0.2563,0.2557,0.255,0.2537,0,0]},{"header":{"parameterUnit":"m.s-1","parameterCategory":1,"la1":30.2992,"la2":30.254,"lo1":-89.0895,"lo2":-89.0443,"dy":0.0025,"dx":0.0025,"nx":19,"ny":19,"refTime":"2026-05-23T03:00:00:Z","depth":0,"parameterNumber":3,"parameterNumberName":"V-component_of_WINDS"},"data":[0,0,0,-1.5706,-1.57,-1.5408,-1.5406,-1.5045,-1.5042,0,0,0,0,0,0,0,0,0,0,0,-1.581,-1.5809,-1.5706,-1.57,-1.5408,-1.5406,-1.5045,-1.5042,0,0,0,0,0,0,0,0,0,0,0,-1.5811,-1.5809,-1.5807,-1.5699,-1.5408,-1.5406,-1.5046,-1.526,0,0,0,0,0,0,0,0,0,0,-1.554,-1.5657,-1.5809,-1.5807,-1.5697,-1.5408,-1.5406,-1.5269,-1.5246,-1.5186,0,-1.5146,0,-1.5089,-1.5019,-1.5018,0,0,0,-1.5683,-1.5676,-1.5583,-1.5807,-1.5695,-1.5409,-1.5535,-1.5256,-1.523,-1.5155,-1.514,-1.5126,-1.5083,-1.5017,-1.5015,-1.4741,-1.4741,0,0,-1.57,-1.5765,-1.5601,-1.5567,-1.5624,-1.5544,-1.5526,-1.524,-1.5224,-1.5139,-1.5117,-1.5077,-1.5015,-1.5012,-1.4742,-1.4741,0,0,0,-1.5757,-1.5777,-1.5689,-1.5582,-1.5529,-1.5536,-1.5515,-1.5237,-1.5204,-1.5113,-1.5073,-1.5013,-1.5009,-1.4742,-1.4742,-1.4782,0,0,0,-1.5766,-1.581,-1.5697,-1.5734,-1.5535,-1.5382,-1.5519,-1.5224,-1.5189,-1.5075,-1.5013,-1.5005,-1.4743,-1.4742,-1.4782,-1.4789,0,0,0,-1.5823,-1.5816,-1.5782,-1.5738,-1.5616,-1.5385,-1.5334,-1.5215,-1.5165,-1.5018,-1.5005,-1.4743,-1.4742,-1.4782,-1.4788,-1.4735,0,0,0,-1.59,-1.5818,-1.5783,-1.5674,-1.5619,-1.5416,-1.5336,-1.5178,-1.5057,-1.5011,-1.4743,-1.4742,-1.4782,-1.4788,-1.4736,-1.4702,-1.4695,0,0,-1.5832,-1.5812,-1.5742,-1.5703,-1.5525,-1.5455,-1.5276,-1.5099,-1.502,-1.4836,-1.4828,-1.4782,-1.4788,-1.4735,-1.4635,-1.463,0,0,0,-1.5742,-1.5693,-1.5632,-1.5524,-1.5393,-1.5276,-1.5121,-1.5054,-1.4897,-1.4943,-1.4747,-1.4748,-1.4714,-1.4694,-1.469,-1.4654,-1.4736,-1.4737,-1.4737,-1.5737,-1.5648,-1.5526,-1.5401,-1.5296,-1.5138,-1.5041,-1.4922,-1.4857,-1.4812,-1.4757,-1.4708,-1.4688,-1.4684,-1.4649,-1.4732,-1.4733,-1.4733,-1.4733,-1.5627,-1.5543,-1.5463,-1.5317,-1.5219,-1.509,-1.4931,-1.489,-1.4749,-1.4743,-1.4708,-1.4707,-1.4682,-1.4645,-1.4735,-1.4734,-1.4734,-1.4734,-1.4734,-1.5613,-1.5557,-1.5483,-1.5317,-1.5197,-1.5068,-1.494,-1.4853,-1.4769,-1.4735,-1.4664,-1.4663,-1.4649,-1.4708,-1.4708,-1.4708,-1.4708,-1.4707,-1.4707,-1.5627,-1.5543,-1.545,-1.5304,-1.5222,-1.5102,-1.494,-1.4853,-1.4733,-1.4679,-1.4678,-1.4615,-1.4699,-1.4721,-1.4704,-1.4705,-1.4705,-1.4705,-1.4706,-1.5547,-1.5552,-1.541,-1.5329,-1.5146,-1.503,-1.4923,-1.4753,-1.4668,-1.4605,-1.4549,-1.4627,-1.4597,-1.4599,-1.4616,-1.4573,-1.4573,-1.4573,-1.4573,-1.5533,-1.5512,-1.5346,-1.5222,-1.5088,-1.4977,-1.4808,-1.4678,-1.4542,-1.4482,-1.4475,-1.4491,-1.4498,-1.4463,-1.4468,-1.4483,-1.4406,-1.4406,-1.4406,-1.5477,-1.5439,-1.5318,-1.5196,-1.5046,-1.4917,-1.4754,-1.4604,-1.445,-1.4397,-1.4431,-1.4438,-1.4463,-1.4476,-1.4424,-1.4435,-1.4459,0,0]}]]